Flag Weather past 2 weeks in Trujillo, La Libertad, Peru

Now
64 °F

Overcast.


Feels Like: 64 °F
Forecast: 62 / 73 °F
Wind: 7 mph from Southeast

Location: Trujillo Airport

Current Time: Oct 30, 2014 at 11:27:06 PM

Latest Report: Oct 30, 2014 at 11:00 PM


Visibility: N/A

Pressure: 29.95 "Hg

Humidity: 83%

Dew point: 59 °F

Location of TrujilloLocation

Historic Weather in Trujillo — Graph

°F

Trujillo temperature yesterday

Maximum temperature yesterday: 68 °F (at 3:00 PM)
Minimum temperature yesterday: 63 °F (at 6:00 AM)
Average temperature yesterday: 65 °F

Past Weeks' High & Low Weather Summary

 TemperatureHumidityPressure
High70 °F (Oct 16, 1:00 PM)94% (Oct 17, 3:00 AM)30.04 "Hg (Oct 17, 3:00 AM)
Low61 °F (Oct 17, 3:00 AM)69% (Oct 16, 1:00 PM)29.83 "Hg (Oct 20, 4:00 PM)
Average65 °F83%29.94 "Hg
* Reported Oct 15 10:00 PM — Oct 30 10:00 PM, Trujillo, Weather by CustomWeather, © 2014

Note: Actual official high and low records may vary slightly from our data, if they occured in-between our weather recording intervals... More about our weather records

Advertising

Trujillo weather history for previous 24 hours

 ConditionsComfort  
Time TempWeatherWind HumidityBarometerVisibility
10:00 PM
Oct 30
64 °FOvercast.5 mph83%29.95 "Hg5 mi
9:00 PM64 °FOvercast.5 mph83%29.95 "Hg5 mi
8:00 PM64 °FOvercast.7 mph83%29.92 "Hg6 mi
7:00 PM64 °FOvercast.8 mph83%29.89 "HgN/A
6:00 PM64 °FOvercast.8 mph83%29.86 "HgN/A
5:00 PM66 °FOvercast.8 mph78%29.86 "HgN/A
4:00 PM66 °FOvercast.8 mph83%29.86 "HgN/A
3:00 PM66 °FOvercast.9 mph83%29.86 "HgN/A
2:00 PM68 °FOvercast.10 mph73%29.86 "Hg6 mi
1:00 PM68 °FOvercast.8 mph78%29.89 "HgN/A
12:00 PM66 °FPartly sunny.9 mph78%29.92 "HgN/A
11:00 AM66 °FOvercast.9 mph78%29.92 "HgN/A
10:00 AM66 °FOvercast.9 mph78%29.95 "HgN/A
9:00 AM64 °FOvercast.8 mph83%29.92 "Hg5 mi
8:00 AM64 °FOvercast.5 mph83%29.92 "Hg5 mi
7:00 AM63 °FOvercast.7 mph88%29.89 "Hg5 mi
6:00 AM63 °FOvercast.7 mph88%29.86 "Hg5 mi
5:00 AM63 °FOvercast.6 mph88%29.86 "Hg4 mi
4:00 AM63 °FOvercast.8 mph88%29.83 "Hg5 mi
3:00 AM63 °FOvercast.8 mph88%29.83 "Hg5 mi
2:00 AM63 °FOvercast.10 mph88%29.86 "Hg5 mi
1:00 AM64 °FOvercast.9 mph83%29.89 "Hg5 mi
12:00 AM64 °FOvercast.7 mph83%29.92 "HgN/A
11:00 PM
Oct 29
64 °FOvercast.7 mph83%29.92 "HgN/A
Weather by CustomWeather, © 2014

See weather overviewHow to use our weather pages